Location: Waco, TX
(31.5480°N, 97.1670°W)
Time: 09:21:50
(UTC-05:00)

ISS - Pass Details

Date: 20 May 2017
Orbit: 402 x 409 km, 51.6° (Epoch: 25 May)

Event Time Altitude Azimuth Distance (km) Brightness Sun altitude
Rises 07:48:11 0° 306° (NW) 2,315 -0.4 15.1°
Reaches altitude 10° 07:50:22 10° 298° (WNW) 1,452 -1.4 15.5°
Maximum altitude 07:53:23 36° 230° (SW) 649 -3.1 16.1°
Drops below altitude 10° 07:56:24 10° 161° (SSE) 1,442 -0.9 16.7°
Sets 07:58:32 0° 152° (SSE) 2,296 0.2 17.2°
